Tracking 30995 objects as of 5-Jul-2025
HD Live streaming from Space Station
objects crossing your sky now

FALCON 9 R/B

Track FALCON 9 R/B now!
10-day predictions


NORAD ID: 44869
Int'l Code: 2019-091B
Perigee: 295.6 km
Apogee: 18,964.3 km
Inclination: 26.9 °
Period: 335.7 minutes
Semi major axis: 16000 km
RCS: Unknown
Launch date: December 17, 2019
Source: United States (US)
Launch site: AIR FORCE EASTERN TEST RANGE (AFETR)

Note: This is a ROCKET BODY
Your satellite tracking list
STARLINK-2412
Track 1 satellite(s)




NASA's NSSDC Master Catalog

Two Line Element Set (TLE):
1 44869U 19091B   25185.96882799  .00006069  00000-0  12325-2 0  9996
2 44869  26.9291 130.4816 5833623 308.7502  12.1447  4.28927457 84122
Source of the keplerian elements: AFSPC